Terminal Aerodrome Forecast
Issued by NWS

Home | Current Version | Previous Version | Text Only | Print | Product List | Glossary On
Versions: 1 2 3 4 5 6 7 8 9 10 11 12 13 14 15 16 17 18 19 20 21 22 23 24 25 26 27 28
000
FTUS43 KMKX 050714 AAA
TAFENW
TAF AMD
KENW 050714Z 0507/0606 36010G20KT P6SM OVC045
     FM051100 36010KT P6SM SCT045 BKN070
     FM051500 01010KT P6SM FEW030 SCT200
     FM052000 03007KT P6SM FEW040 SCT200
     FM060400 VRB03KT P6SM SCT120 BKN250=

USA.gov is the U.S. government's official web portal to all federal, state and local government web resources and services.